Home > Time Zones > World Clock > Weather > U.S.A. > Yuma > Past weeks

Flag for U.S.A. Weather past 2 weeks in Yuma, Arizona, U.S.A.

Now
84 °F

Passing clouds.


Feels Like: 89 °F
Forecast: 86 / 104 °F
Wind: 10 mph from South

Location: Yuma Marine Corps Air Station

Current Time: Jul 1, 2015 at 5:13:03 AM

Latest Report: Jul 1, 2015 at 3:57 AM


Visibility: 10 mi

Pressure: 29.81 "Hg

Humidity: 65%

Dew point: 71 °F

Location of YumaLocation

Historic Weather in Yuma — Graph

°F

Yuma temperature yesterday

Maximum temperature yesterday: 102 °F (at 5:57 PM)
Minimum temperature yesterday: 86 °F (at 5:57 AM)
Average temperature yesterday: 93 °F

Past Weeks' High & Low Weather Summary

 TemperatureHumidityPressure
High115 °F (Jun 18, 4:57 PM)69% (Jun 21, 4:57 AM)29.90 "Hg (Jun 21, 4:57 AM)
Low79 °F (Jun 17, 5:57 AM)3% (Jun 19, 10:57 AM)29.62 "Hg (Jun 19, 5:57 PM)
Average95 °F31%29.76 "Hg
* Reported Jun 16 3:57 AM — Jul 1 3:57 AM, Yuma, Weather by CustomWeather, © 2015

Note: Actual official high and low records may vary slightly from our data, if they occured in-between our weather recording intervals... More about our weather records

Advertising

Yuma weather history for previous 24 hours

 ConditionsComfort  
Time TempWeatherWind HumidityBarometerVisibility
3:57 AM
Wed, Jul 1
84 °FPassing clouds.10 mph65%29.81 "Hg10 mi
2:57 AM87 °FPassing clouds.16 mph50%29.84 "Hg10 mi
1:57 AM87 °FPassing clouds.22 mph48%29.77 "Hg9 mi
12:57 AM88 °FClear.14 mph50%29.82 "Hg10 mi
11:57 PM
Tue, Jun 30
89 °FPartly cloudy.21 mph42%29.78 "Hg10 mi
10:57 PM90 °FPartly cloudy.13 mph39%29.76 "Hg10 mi
9:57 PM93 °FPartly cloudy.7 mph38%29.75 "Hg10 mi
8:57 PM97 °FPassing clouds.6 mph30%29.72 "Hg10 mi
7:57 PM98 °FPassing clouds.3 mph29%29.70 "Hg10 mi
6:57 PM102 °FScattered clouds.6 mph26%29.70 "Hg10 mi
5:57 PM102 °FScattered clouds.7 mph27%29.70 "Hg9 mi
4:57 PM101 °FScattered clouds.6 mph29%29.72 "Hg10 mi
3:57 PM99 °FBroken clouds.6 mph31%29.75 "Hg10 mi
2:57 PM98 °FPartly sunny.10 mph35%29.78 "Hg10 mi
1:57 PM95 °FBroken clouds.12 mph43%29.82 "Hg10 mi
12:57 PM92 °FBroken clouds.15 mph51%29.85 "Hg10 mi
12:02 PM86 °FThundershowers. Passing clouds.9 mph61%29.85 "Hg10 mi
10:57 AM94 °FMore clouds than sun.28 mph40%29.90 "Hg1 mi
9:57 AM97 °FPartly sunny.20 mph35%29.88 "Hg8 mi
8:57 AM93 °FScattered clouds.14 mph46%29.87 "Hg9 mi
7:57 AM90 °FScattered clouds.23 mph54%29.85 "Hg4 mi
6:57 AM88 °FScattered clouds.30 mph55%29.84 "Hg1 mi
5:57 AM86 °FScattered clouds.9 mph46%29.79 "Hg10 mi
Weather by CustomWeather, © 2015

See weather overviewHow to use our weather pages